Weather History for Las Cruces, NM

Change the Weather History Date:

Thursday, June 27, 2013

  Actual Average Record
Temperature  
Mean Temperature 85 °F -  
Max Temperature 105 °F 93 °F 105 °F (2011)
Min Temperature 65 °F 66 °F 59 °F (2001)
Cooling Degree Days 20    
Growing Degree Days 35 (Base 50)    
Moisture  
Dew Point 18 °F    
Average Humidity 8    
Maximum Humidity 12    
Minimum Humidity 5    
Precipitation  
Precipitation 0.00 in - - ()
Sea Level Pressure  
Sea Level Pressure 30.08 in    
Wind  
Wind Speed 8 mph (WSW)    
Max Wind Speed 14 mph    
Max Gust Speed 20 mph    
Visibility 10 miles    
Events      
Averages and records for this station are not official NWS values.
T = Trace of Precipitation, MM = Missing Value Source: NWS Daily Summary

Daily Weather History Graph

Daily Weather History Graph

Search for Another Location

Airport:

Trip Planner

Search our weather history database for the weather conditions in past years. The results will help you decide how hot, cold, wet, or windy it might be!

Date:

Astronomy

Jun. 27, 2013 Rise Set
Actual Time 6:03 AM MDT 8:18 PM MDT
Civil Twilight 5:34 AM MDT 8:46 PM MDT
Nautical Twilight 5:00 AM MDT 9:21 PM MDT
Astronomical Twilight 4:22 AM MDT 9:59 PM MDT
Moon 11:37 PM MDT (6/27) 10:49 AM MDT (6/27)
Length of Visible Light 15h 12m
Length of Day
14h 15m
Waning Gibbous, 76% of the Moon is Illuminated
Jun 27
Waning Gibbous
Jun 29
Last Quarter
Jul 8
New
Jul 15
First Quarter
Jul 22
Full

Hourly Weather History & Observations

Time (MDT) Temp. Dew Point Humidity Pressure Visibility Wind Dir Wind Speed Gust Speed Precip Events Conditions
12:15 AM 76.8 °F 11.8 °F 8% 30.08 in 10.0 mi West 11.5 mph - N/A   Clear
12:35 AM 76.3 °F 10.4 °F 8% 30.08 in 10.0 mi West 12.7 mph - N/A   Clear
12:55 AM 75.7 °F 9.5 °F 8% 30.08 in 10.0 mi West 13.8 mph - N/A   Clear
1:15 AM 74.3 °F 10.4 °F 9% 30.08 in 10.0 mi West 11.5 mph - N/A   Clear
1:35 AM 76.3 °F 9.5 °F 8% 30.08 in 10.0 mi West 13.8 mph - N/A   Clear
1:55 AM 75.6 °F 9.3 °F 8% 30.08 in 10.0 mi West 12.7 mph - N/A   Clear
2:15 AM 76.1 °F 9.3 °F 8% 30.08 in 10.0 mi West 9.2 mph - N/A   Clear
2:35 AM 73.8 °F 9.1 °F 8% 30.08 in 10.0 mi West 9.2 mph - N/A   Clear
2:55 AM 72.3 °F 9.3 °F 9% 30.08 in 10.0 mi WNW 9.2 mph - N/A   Clear
3:15 AM 73.4 °F 9.3 °F 8% 30.08 in 10.0 mi West 10.4 mph - N/A   Clear
3:35 AM 70.9 °F 9.3 °F 9% 30.08 in 10.0 mi West 12.7 mph - N/A   Clear
3:55 AM 70.2 °F 9.3 °F 9% 30.08 in 10.0 mi West 10.4 mph - N/A   Clear
4:15 AM 70.0 °F 9.5 °F 10% 30.08 in 10.0 mi West 6.9 mph - N/A   Clear
4:35 AM 71.1 °F 10.2 °F 10% 30.08 in 10.0 mi WNW 6.9 mph - N/A   Clear
4:55 AM 70.3 °F 10.2 °F 10% 30.08 in 10.0 mi NW 6.9 mph - N/A   Clear
5:15 AM 70.0 °F 10.4 °F 10% 30.09 in 10.0 mi WNW 6.9 mph - N/A   Clear
5:35 AM 69.4 °F 10.2 °F 10% 30.09 in 10.0 mi WNW 5.8 mph - N/A   Clear
5:55 AM 67.1 °F 10.0 °F 11% 30.09 in 10.0 mi WNW 8.1 mph - N/A   Clear
6:15 AM 65.3 °F 9.3 °F 11% 30.09 in 10.0 mi WNW 6.9 mph - N/A   Clear
6:35 AM 66.7 °F 10.0 °F 11% 30.10 in 10.0 mi NW 5.8 mph - N/A   Clear
6:55 AM 68.5 °F 11.1 °F 11% 30.11 in 10.0 mi NW 5.8 mph - N/A   Clear
7:15 AM 73.8 °F 12.6 °F 10% 30.11 in 10.0 mi WNW 3.5 mph - N/A   Clear
7:35 AM 74.5 °F 12.7 °F 9% 30.12 in 10.0 mi West 6.9 mph - N/A   Clear
7:55 AM 75.9 °F 13.1 °F 9% 30.14 in 10.0 mi West 4.6 mph - N/A   Clear
8:15 AM 78.8 °F 14.0 °F 9% 30.14 in 10.0 mi WNW 3.5 mph - N/A   Clear
8:35 AM 82.2 °F 14.9 °F 8% 30.14 in 10.0 mi NW 5.8 mph - N/A   Clear
8:55 AM 86.5 °F 16.7 °F 8% 30.14 in 10.0 mi NNW 3.5 mph - N/A   Clear
9:15 AM 85.8 °F 20.7 °F 9% 30.15 in 10.0 mi East 3.5 mph - N/A   Clear
9:35 AM 86.9 °F 20.8 °F 9% 30.15 in 10.0 mi SSE 3.5 mph - N/A   Clear
9:55 AM 90.7 °F 20.8 °F 8% 30.14 in 10.0 mi NNW 11.5 mph - N/A   Clear
10:15 AM 92.1 °F 21.2 °F 8% 30.14 in 10.0 mi NNW 8.1 mph - N/A   Clear
10:35 AM 93.4 °F 21.6 °F 7% 30.14 in 10.0 mi North 8.1 mph - N/A   Clear
10:55 AM 93.9 °F 21.9 °F 7% 30.14 in 10.0 mi ENE 5.8 mph - N/A   Clear
11:15 AM 95.0 °F 25.9 °F 8% 30.14 in 10.0 mi East 8.1 mph - N/A   Clear
11:35 AM 95.9 °F 23.4 °F 7% 30.14 in 10.0 mi ENE 4.6 mph - N/A   Clear
11:55 AM 96.6 °F 23.9 °F 7% 30.13 in 10.0 mi ENE 5.8 mph - N/A   Clear
12:15 PM 98.1 °F 23.2 °F 7% 30.13 in 10.0 mi ENE 4.6 mph - N/A   Clear
12:35 PM 98.6 °F 24.3 °F 7% 30.12 in 10.0 mi ESE 5.8 mph - N/A   Clear
12:55 PM 98.4 °F 23.4 °F 7% 30.12 in 10.0 mi ENE 3.5 mph - N/A   Clear
1:15 PM 101.3 °F 22.3 °F 6% 30.11 in 10.0 mi East 4.6 mph - N/A   Clear
1:35 PM 100.9 °F 22.3 °F 6% 30.10 in 10.0 mi WSW 4.6 mph - N/A   Clear
1:55 PM 102.7 °F 22.1 °F 6% 30.10 in 10.0 mi SSE 4.6 mph - N/A   Clear
2:15 PM 102.9 °F 21.9 °F 6% 30.08 in 10.0 mi SE 4.6 mph - N/A   Clear
2:35 PM 104.0 °F 21.4 °F 5% 30.08 in 10.0 mi Calm Calm - N/A   Clear
2:55 PM 104.7 °F 20.7 °F 5% 30.07 in 10.0 mi ENE 5.8 mph 9.2 mph N/A   Clear
3:15 PM 105.4 °F 21.4 °F 5% 30.07 in 10.0 mi South 5.8 mph - N/A   Clear
3:35 PM 104.9 °F 21.9 °F 5% 30.06 in 10.0 mi ESE 3.5 mph - N/A   Clear
3:55 PM 105.4 °F 22.3 °F 5% 30.06 in 10.0 mi South 6.9 mph - N/A   Clear
4:15 PM 105.4 °F 22.5 °F 5% 30.05 in 10.0 mi ESE 8.1 mph - N/A   Clear
4:35 PM 104.4 °F 22.6 °F 6% 30.04 in 10.0 mi SSE 4.6 mph - N/A   Clear
4:55 PM 105.6 °F 22.3 °F 5% 30.03 in 10.0 mi ESE 8.1 mph - N/A   Clear
5:15 PM 105.4 °F 22.5 °F 5% 30.03 in 10.0 mi SSE 10.4 mph - N/A   Clear
5:35 PM 105.3 °F 22.1 °F 5% 30.02 in 10.0 mi South 4.6 mph - N/A   Clear
5:55 PM 105.6 °F 22.3 °F 5% 30.02 in 10.0 mi South 8.1 mph - N/A   Clear
6:15 PM 104.7 °F 22.1 °F 5% 30.02 in 10.0 mi ESE 11.5 mph 19.6 mph N/A   Clear
6:35 PM 103.8 °F 21.6 °F 5% 30.03 in 10.0 mi SSE 4.6 mph - N/A   Clear
6:55 PM 102.0 °F 21.9 °F 6% 30.03 in 10.0 mi SSE 8.1 mph - N/A   Clear
7:15 PM 100.6 °F 21.6 °F 6% 30.03 in 10.0 mi South 6.9 mph - N/A   Clear
7:35 PM 99.5 °F 21.6 °F 6% 30.03 in 10.0 mi SSE 6.9 mph - N/A   Clear
7:55 PM 98.2 °F 21.0 °F 6% 30.03 in 10.0 mi SSE 4.6 mph - N/A   Clear
8:15 PM 96.4 °F 21.0 °F 7% 30.04 in 10.0 mi SSW 6.9 mph - N/A   Clear
8:35 PM 95.0 °F 21.0 °F 7% 30.04 in 10.0 mi SSW 4.6 mph - N/A   Clear
8:55 PM 92.7 °F 20.3 °F 7% 30.04 in 10.0 mi WSW 4.6 mph - N/A   Clear
9:15 PM 93.0 °F 23.0 °F 8% 30.04 in 10.0 mi West 9.2 mph - N/A   Clear
9:35 PM 90.9 °F 23.5 °F 9% 30.05 in 10.0 mi WSW 8.1 mph - N/A   Clear
9:55 PM 90.0 °F 23.7 °F 9% 30.05 in 10.0 mi West 9.2 mph - N/A   Clear
10:15 PM 89.4 °F 23.7 °F 9% 30.06 in 10.0 mi West 10.4 mph - N/A   Clear
10:35 PM 86.4 °F 23.0 °F 10% 30.06 in 10.0 mi West 9.2 mph - N/A   Clear
10:55 PM 85.8 °F 23.4 °F 10% 30.06 in 10.0 mi WNW 8.1 mph - N/A   Clear
11:15 PM 83.5 °F 22.8 °F 11% 30.07 in 10.0 mi West 9.2 mph - N/A   Clear
11:35 PM 80.2 °F 22.5 °F 12% 30.08 in 10.0 mi ESE 9.2 mph - N/A   Clear
11:55 PM 85.6 °F 23.4 °F 10% 30.09 in 10.0 mi SE 9.2 mph - N/A   Clear